Goldsboro, NC

6:00 PM EDT on April 21, 2018 (GMT -0400)
Goldsboro-Wayne Municipal

Weather History for KGWW - November, 2012

Change the Weather History Date:

Wednesday, November 7, 2012

  Actual Average (KGSB) Record (KGSB)
Temperature  
Mean Temperature 42 °F -  
Max Temperature 48 °F 65 °F 80 °F (1996)
Min Temperature 37 °F 43 °F 33 °F (2001)
Degree Days  
Heating Degree Days 22    
Moisture  
Dew Point 35 °F    
Average Humidity 77    
Maximum Humidity 93    
Minimum Humidity 58    
Precipitation  
Precipitation 0.00 in - - ()
Sea Level Pressure  
Sea Level Pressure 29.88 in    
Wind  
Wind Speed 7 mph (North)    
Max Wind Speed 12 mph    
Max Gust Speed 17 mph    
Visibility 10 miles    
Events Rain    
Averages and records for this station are not official NWS values.
T = Trace of Precipitation, MM = Missing Value Source: NWS Daily Summary

Daily Weather History Graph

Daily Weather History Graph

Search for Another Location

Airport or City:

Astronomy

Nov. 07, 2012 Rise Set
Actual Time 6:39 AM EST 5:10 PM EST
Civil Twilight 6:13 AM EST 5:37 PM EST
Nautical Twilight 5:42 AM EST 6:07 PM EST
Astronomical Twilight 5:12 AM EST 6:37 PM EST
Moon No Moon Rise 1:05 PM EST (11/7)
Length of Visible Light 11h 24m
Length of Day
10h 31m
Last Quarter, 43% of the Moon is Illuminated
Nov 7
Last Quarter
Nov 13
New
Nov 20
First Quarter
Nov 28
Full
Dec 6
Last Quarter

Hourly Weather History & Observations

Time (EST) Temp. Windchill Dew Point Humidity Pressure Visibility Wind Dir Wind Speed Gust Speed Precip Events Conditions
12:15 AM 41.0 °F 34.7 °F 32.0 °F 70% 29.89 in 10.0 mi North 10.4 mph - N/A   Overcast
12:35 AM 41.0 °F 35.2 °F 32.0 °F 70% 29.89 in 10.0 mi North 9.2 mph - N/A   Overcast
12:55 AM 41.0 °F 35.8 °F 33.8 °F 76% 29.88 in 10.0 mi North 8.1 mph - N/A Rain Rain
1:15 AM 41.0 °F 38.0 °F 33.8 °F 76% 29.88 in 10.0 mi North 4.6 mph - N/A   Drizzle
1:35 AM 39.2 °F 34.2 °F 35.6 °F 87% 29.88 in 10.0 mi North 6.9 mph - N/A Rain Rain
1:55 AM 39.2 °F 35.0 °F 35.6 °F 87% 29.88 in 10.0 mi North 5.8 mph - N/A   Drizzle
2:15 AM 39.2 °F 34.2 °F 35.6 °F 87% 29.87 in 10.0 mi NNW 6.9 mph - N/A   Drizzle
2:35 AM 41.0 °F 37.1 °F 35.6 °F 81% 29.87 in 10.0 mi North 5.8 mph - N/A   Light Drizzle
2:55 AM 41.0 °F 35.2 °F 35.6 °F 81% 29.86 in 10.0 mi North 9.2 mph - N/A   Overcast
3:15 AM 41.0 °F 37.1 °F 37.4 °F 87% 29.86 in 10.0 mi North 5.8 mph - N/A   Drizzle
3:35 AM 39.2 °F 33.6 °F 37.4 °F 93% 29.86 in 10.0 mi North 8.1 mph - N/A   Light Drizzle
3:55 AM 39.2 °F 33.0 °F 37.4 °F 93% 29.85 in 10.0 mi NNW 9.2 mph - N/A   Light Drizzle
4:15 AM 39.2 °F 33.6 °F 37.4 °F 93% 29.85 in 10.0 mi NNW 8.1 mph - N/A   Overcast
4:35 AM 39.2 °F 34.2 °F 37.4 °F 93% 29.86 in 10.0 mi NNW 6.9 mph - N/A   Light Drizzle
4:55 AM 41.0 °F 35.8 °F 37.4 °F 87% 29.86 in 10.0 mi NNW 8.1 mph - N/A   Overcast
5:15 AM 41.0 °F 37.1 °F 37.4 °F 87% 29.86 in 10.0 mi NNW 5.8 mph - N/A   Overcast
5:35 AM 41.0 °F 37.1 °F 37.4 °F 87% 29.86 in 10.0 mi North 5.8 mph - N/A   Overcast
5:55 AM 41.0 °F 36.4 °F 37.4 °F 87% 29.87 in 10.0 mi North 6.9 mph - N/A   Overcast
6:35 AM 41.0 °F 37.1 °F 37.4 °F 87% 29.87 in 10.0 mi North 5.8 mph - N/A   Overcast
7:15 AM 41.0 °F 37.1 °F 37.4 °F 87% 29.87 in 10.0 mi North 5.8 mph - N/A   Overcast
7:35 AM 41.0 °F 38.0 °F 37.4 °F 87% 29.88 in 10.0 mi North 4.6 mph - N/A   Overcast
7:55 AM 41.0 °F 36.4 °F 37.4 °F 87% 29.88 in 10.0 mi North 6.9 mph - N/A   Overcast
8:15 AM 41.0 °F 36.4 °F 37.4 °F 87% 29.89 in 10.0 mi North 6.9 mph - N/A   Overcast
8:35 AM 41.0 °F 35.8 °F 37.4 °F 87% 29.89 in 10.0 mi North 8.1 mph - N/A   Overcast
8:55 AM 41.0 °F 35.2 °F 37.4 °F 87% 29.89 in 10.0 mi North 9.2 mph - N/A   Overcast
9:15 AM 41.0 °F 35.8 °F 37.4 °F 87% 29.89 in 10.0 mi North 8.1 mph - N/A   Overcast
9:35 AM 41.0 °F 35.8 °F 35.6 °F 81% 29.89 in 10.0 mi North 8.1 mph - N/A   Overcast
9:55 AM 42.8 °F 38.0 °F 35.6 °F 76% 29.89 in 10.0 mi NNW 8.1 mph - N/A   Overcast
10:15 AM 42.8 °F 39.3 °F 35.6 °F 76% 29.89 in 10.0 mi North 5.8 mph - N/A   Overcast
10:35 AM 42.8 °F 38.0 °F 35.6 °F 76% 29.89 in 10.0 mi North 8.1 mph - N/A   Overcast
10:55 AM 44.6 °F 40.7 °F 35.6 °F 71% 29.88 in 10.0 mi North 6.9 mph - N/A   Overcast
11:15 AM 44.6 °F 39.7 °F 35.6 °F 71% 29.88 in 10.0 mi North 9.2 mph - N/A   Overcast
11:35 AM 44.6 °F 39.2 °F 35.6 °F 71% 29.87 in 10.0 mi NNW 10.4 mph - N/A   Overcast
11:55 AM 46.4 °F 41.9 °F 35.6 °F 66% 29.86 in 10.0 mi North 9.2 mph - N/A   Overcast
12:15 PM 46.4 °F 41.9 °F 33.8 °F 62% 29.85 in 10.0 mi North 9.2 mph - N/A   Overcast
12:35 PM 46.4 °F 41.5 °F 35.6 °F 66% 29.85 in 10.0 mi NNW 10.4 mph - N/A   Overcast
12:55 PM 48.2 °F - 35.6 °F 62% 29.85 in 10.0 mi NNW 6.9 mph - N/A   Overcast
1:15 PM 48.2 °F - 33.8 °F 58% 29.85 in 10.0 mi NNW 11.5 mph - N/A   Overcast
1:35 PM 48.2 °F - 35.6 °F 62% 29.85 in 10.0 mi North 9.2 mph - N/A   Overcast
1:55 PM 46.4 °F 42.4 °F 33.8 °F 62% 29.85 in 10.0 mi North 8.1 mph 17.3 mph N/A   Overcast
2:15 PM 46.4 °F 41.5 °F 33.8 °F 62% 29.84 in 10.0 mi NNE 10.4 mph - N/A   Overcast
2:35 PM 48.2 °F - 33.8 °F 58% 29.84 in 10.0 mi North 9.2 mph - N/A   Overcast
2:55 PM 46.4 °F 41.9 °F 33.8 °F 62% 29.84 in 10.0 mi North 9.2 mph - N/A   Overcast
3:35 PM 46.4 °F 41.9 °F 33.8 °F 62% 29.85 in 10.0 mi NNW 9.2 mph - N/A   Overcast
3:55 PM 46.4 °F 41.9 °F 33.8 °F 62% 29.86 in 10.0 mi North 9.2 mph - N/A   Overcast
4:15 PM 46.4 °F 41.9 °F 33.8 °F 62% 29.86 in 10.0 mi North 9.2 mph - N/A   Overcast
4:35 PM 46.4 °F 42.9 °F 33.8 °F 62% 29.87 in 10.0 mi North 6.9 mph - N/A   Mostly Cloudy
4:55 PM 46.4 °F 43.5 °F 33.8 °F 62% 29.87 in 10.0 mi North 5.8 mph - N/A   Overcast
5:15 PM 44.6 °F 41.4 °F 33.8 °F 66% 29.87 in 10.0 mi North 5.8 mph - N/A   Mostly Cloudy
5:35 PM 44.6 °F 43.1 °F 33.8 °F 66% 29.88 in 10.0 mi North 3.5 mph - N/A   Mostly Cloudy
6:15 PM 39.2 °F - 33.8 °F 81% 29.90 in 10.0 mi Calm Calm - N/A   Clear
6:35 PM 37.4 °F - 33.8 °F 87% 29.90 in 10.0 mi Calm Calm - N/A   Clear
6:55 PM 37.4 °F - 33.8 °F 87% 29.90 in 10.0 mi Calm Calm - N/A   Clear
7:15 PM 37.4 °F 34.9 °F 35.6 °F 93% 29.90 in 10.0 mi North 3.5 mph - N/A   Mostly Cloudy
7:35 PM 41.0 °F 39.0 °F 35.6 °F 81% 29.90 in 10.0 mi North 3.5 mph - N/A   Overcast
7:55 PM 41.0 °F 37.1 °F 35.6 °F 81% 29.90 in 10.0 mi North 5.8 mph - N/A   Mostly Cloudy
8:15 PM 42.8 °F 40.1 °F 35.6 °F 76% 29.90 in 10.0 mi North 4.6 mph - N/A   Overcast
8:35 PM 42.8 °F 38.6 °F 35.6 °F 76% 29.91 in 10.0 mi North 6.9 mph - N/A   Overcast
8:55 PM 42.8 °F 38.6 °F 35.6 °F 76% 29.91 in 10.0 mi North 6.9 mph - N/A   Overcast
9:15 PM 42.8 °F 39.3 °F 35.6 °F 76% 29.92 in 10.0 mi North 5.8 mph - N/A   Scattered Clouds
9:35 PM 42.8 °F 40.1 °F 37.4 °F 81% 29.92 in 10.0 mi North 4.6 mph - N/A   Mostly Cloudy
9:55 PM 42.8 °F 41.1 °F 37.4 °F 81% 29.93 in 10.0 mi North 3.5 mph - N/A   Overcast
10:35 PM 42.8 °F - 35.6 °F 76% 29.93 in 10.0 mi Calm Calm - N/A   Overcast
10:55 PM 41.0 °F 39.0 °F 35.6 °F 81% 29.93 in 10.0 mi NNW 3.5 mph - N/A   Overcast
11:15 PM 41.0 °F 39.0 °F 35.6 °F 81% 29.93 in 10.0 mi NNW 3.5 mph - N/A   Scattered Clouds
11:35 PM 39.2 °F - 33.8 °F 81% 29.93 in 10.0 mi Calm Calm - N/A   Clear
11:55 PM 37.4 °F - 33.8 °F 87% 29.93 in 10.0 mi Calm Calm - N/A   Clear